Pagina principală
METAR-TAF:

METAR-TAF

Aeroporturi :

Seghedin, Ungaria

Latitudine: 46-15N, longitudine: 020-06E, elevație: 82 m

Observații meteo curente

Raportul a fost făcut în urmă cu 28 de minute, la 04:45 UTC
Vânt 4 kt de la Vest/Nord-vest
Temperatură -3°C
Umiditate 93%
Presiune 1022 hPa
Vizibilitate: 6000 m
Nori puțini la o înălțime de 20000 picior

METAR: LHUD 180445Z 30004KT 6000 FEW200 M03/M04 Q1022

Ora: 06:13 (05:13 UTC)


TAF: lipsă

Observații și prognoze meteo pentru peste 4.000 de aeroporturi (rapoarte METAR și TAF).

Stațiile disponibile sunt reprezentate pe hartă prin puncte galbene și roșii.

Țineți indicatorul mouse-ului pe punctul dorit pentru a vedea denumirea stației.

Apoi, faceți clic pentru a vedea observațiile și prognozele meteorologice.

Pentru a schimba harta: Pentru mărire, faceți clic pe butoanele verzi cu cruce neagră; pentru micșorare, pe butonul verde cu o liniuță; pentru hărți învecinate, pe săgețile verzi.


METAR-TAF: